カタログに戻る

STARLINK-2587

運用中通信VLEO
NORAD 48399·PAYLOAD·🇺🇸 United States

打ち上げ May 4, 2021 から Cape Canaveral Space Force Station

Loading…

次のパス (今後24時間)

TLE

最新Source: CelesTrak SupGP

元期: Sep 15, 2026, 00:38 UTC

1 48399C 21038AY  26258.02687500 -.00015431  00000+0 -49639-3 0  2585
2 48399  53.1603 171.4383 0001502  81.2267 340.6036 15.31697517    12

AllMySatでSTARLINK-2587をリアルタイム追跡

Download on the App Store